Regional Weather Roundup
Issued by NWS

Current Version | Previous Version | Text Only | Print | Product List | Glossary Off
Versions: 1 2 3 4 5 6 7 8 9 10 11 12 13 14 15 16 17 18 19 20 21 22 23 24 25 26 27 28 29 30 31 32 33 34 35 36 37 38 39 40 41 42 43 44 45 46 47 48 49 50

000
ASUS42 KFFC 290410
RWRGA
WEATHER ROUNDUP FOR GEORGIA
NATIONAL WEATHER SERVICE PEACHTREE CITY GA
1200 AM EDT WED JUL 29 2015

NOTE: "FAIR" INDICATES FEW OR NO CLOUDS BELOW 12,000 FEET WITH NO
SIGNIFICANT WEATHER AND/OR OBSTRUCTIONS TO VISIBILITY.

* = USE WITH CAUTION. THE STATIONS MARKED WITH AN ASTERISK MAY NOT
REPORT WEATHER SUCH AS PRECIPITATION, FOG, OR THUNDER AND ARE NOT
QUALITY CONTROLLED BY NWS.

THE REMARK "TC" DENOTES TEMPERATURE READING IN DEGREES CELSIUS.

GAZ001>058-290500-
NORTH GEORGIA

CITY           SKY/WX    TMP DP  RH WIND       PRES   REMARKS
ATLANTA        MOCLDY    80  73  79 NW7       30.02R
ATHENS         MOCLDY    81  72  74 NE3       30.00R
CHAMBLEE       PTCLDY    81  73  76 S3        30.02S
PEACHTREE CITY MOCLDY    78  72  81 CALM      30.03R
ROME           CLEAR     76  74  93 N3        30.00S
WEST ATLANTA   PTCLDY    80  73  79 CALM      30.01S
GAINESVILLE    PTCLDY    80  74  81 CALM      30.05R
CARTERSVILLE   PTCLDY    75  72  90 CALM      30.01F


CITY           SKY/WX    TMP DP  RH WIND       PRES   REMARKS
DALTON*        MOCLDY    77  75  94 CALM      30.00F
BLAIRSVILLE*     N/A     73  66  76 CALM      30.08F HAZE
$$

GAZ059>098-102>109-290500-
CENTRAL GEORGIA

CITY           SKY/WX    TMP DP  RH WIND       PRES   REMARKS
AUGUSTA-BUSH   PTCLDY    80  75  84 E7        29.97R
AUGUSTA-DANIEL PTCLDY    85  74  69 E5        29.99R HX  92
COLUMBUS       CLOUDY    80  74  81 CALM      29.98R
MACON          MOCLDY    77  74  90 CALM      29.97S


CITY           SKY/WX    TMP DP  RH WIND       PRES   REMARKS
LAGRANGE*      MOCLDY    79  79 100 CALM      30.01S
SYLVANIA*      PTCLDY    80  77  91 CALM      30.00R
MILLEDGEVILLE* MOCLDY    79  73  83 CALM      29.98R
$$

GAZ099>101-110>166-290500-
SOUTH GEORGIA

CITY           SKY/WX    TMP DP  RH WIND       PRES   REMARKS
SAVANNAH       MOCLDY    80  75  84 E5        29.98S
VALDOSTA       PTCLDY    82  76  81 SE5       29.97R
ALMA           PTCLDY    79  72  79 SE3       29.97S
ST SIMONS      PTCLDY    80  76  87 NE5       29.96S
ALBANY         PTCLDY    81  73  76 CALM      29.98S
BRUNSWICK      PTCLDY    77  75  94 CALM      29.98R


CITY           SKY/WX    TMP DP  RH WIND       PRES   REMARKS
BAINBRIDGE*    PTCLDY    86  77  74 NE3       29.97R HX  97
MOULTRIE*      MOCLDY    82  75  78 CALM      29.98S
VIDALIA*       PTCLDY    79  73  83 SE3       29.98S
WAYCROSS*      PTCLDY    81  76  85 CALM      29.97S
DOUGLAS*       CLEAR     81  73  78 CALM      29.99S
$$



USA.gov is the U.S. government's official web portal to all federal, state and local government web resources and services.